STARLINK-36525, 67450

Orbit data source: Space-Track

STARLINK-36525, 67450 is a payload satellite owned by SpaceX/Seattle (US) in LEO that was launched on Wed, 14 Jan 2026 UTC via an FALCON 9 launch vehicle from the Air Force Eastern Test Range (AFETR). Payload-class satellites include a variety of spacecraft equipped with specific instruments for various scientific and technological missions. These include communications satellites like Starlink; space stations such as the ISS; scientific satellites like the Hubble; Earth observation satellites from companies like Planet Labs, Umbra, and HawkEye 360; GPS; miniature CubeSats for education and research; and military/defense satellites.

Loading next visibility...
Identifier
67450, 2026-008F
Orbit
LEO
Country
Flag of USUS
Related business
Manufacturer
SpaceX/Seattle
Mission
Operational Commercial Communications
Bus & Motor
STARLINK V2MO, Unknown motor
Mass
575 kg wet, ~530 kg dry
Launch date (UTC)
2026-01-14 (5 months ago)
Launch vehicle
FALCON 9
Launch site
Air Force Eastern Test Range (AFETR)
Object type
Payload
Rocket body
Debris
Shape & HBR
Box + 2 Pan, 17.7 m
Radar Cross Section
36.964 m², Large (>1 m²)

Expand to show TLE details & history
Last TLE update: 20 hours ago

TLE from 20 hours ago
0 STARLINK-36525
1 67450U 26008F   26171.00002315  .00050548  00000-0  18349-2 0  9995
2 67450  43.0011 347.5242 0001571 278.0342 246.1656 15.27561968  5881
Epoch: 2026-06-20T00:00Z
TLE epoch observation values (Epoch: 2026-06-20T00:00:02.000Z)
Latitude
10.72048°
Longitude
-112.35278°
Altitude
482.557 km
Speed
7.627 km/s
True Right ascension
10h 23m 30s
True Declination
10° 39' 19"
Sunlit
Object was in daylight at epoch
Visualization orbit readout
Latitude
Unknown
Longitude
Unknown
Altitude
Unknown
Speed
Unknown
Apparent Right ascension
Unknown
Apparent Declination
Unknown
Sunlit
N/A
Visualization observer readout
Local Sidereal Time
07:23:01
Azimuth
Unknown
Elevation
Unknown
Doppler factor
Unknown
Orbital elements
Apogee altitude
486.126 km
Perigee altitude
483.97 km
Semi-major axis
6,863.185 km
Eccentricity
0.00016
Inclination
43.0011°
RAAN
347.5242°
Arg. of periapsis
278.0342°
True anomaly
246.14913°
Mean anomaly
246.1656°
Eccentric anomaly
246.15737°
Mean motion
3.81729 °/min
Orbital period
94.31 mins
BSTAR
0.0018349
Loading maneuver chart data...
Computing Atmospheric mass density...
Loading historical data...
Loading historical data...
Loading historical data...
Loading historical data...
Loading historical data...
Loading historical data...
Loading historical data...

Documentation

Showing up to 5 results
|